Weather History for Odessa, TX

Change the Weather History Date:

Tuesday, June 25, 2013

  Actual Average (KMAF) Record (KMAF)
Temperature  
Mean Temperature 88 °F 82 °F  
Max Temperature 102 °F 94 °F 111 °F (2011)
Min Temperature 75 °F 69 °F 57 °F (1940)
Cooling Degree Days 24 17  
Month to date cooling degree days 377  
Year to date cooling degree days 766  
Since 1 June cooling degree days 377  
Growing Degree Days 38 (Base 50)    
Moisture  
Dew Point 61 °F    
Average Humidity 43    
Maximum Humidity 69    
Minimum Humidity 19    
Precipitation  
Precipitation 0.00 in 0.06 in 0.91 in (1996)
Month to date precipitation 1.51  
Year to date precipitation 5.77  
Sea Level Pressure  
Sea Level Pressure 29.79 in    
Wind  
Wind Speed 15 mph (South)    
Max Wind Speed 28 mph    
Max Gust Speed 43 mph    
Visibility 9 miles    
Events Thunderstorm    
T = Trace of Precipitation, MM = Missing Value Source: NWS Daily Summary

Daily Weather History Graph

Daily Weather History Graph

Search for Another Location

Airport:

Trip Planner

Search our weather history database for the weather conditions in past years. The results will help you decide how hot, cold, wet, or windy it might be!

Date:

Astronomy

Jun. 25, 2013 Rise Set
Actual Time 6:45 AM CDT 8:59 PM CDT
Civil Twilight 6:17 AM CDT 9:27 PM CDT
Nautical Twilight 5:42 AM CDT 10:01 PM CDT
Astronomical Twilight 5:05 AM CDT 10:39 PM CDT
Moon 10:58 PM CDT (6/25) 9:18 AM CDT (6/25)
Length of Visible Light 15h 10m
Length of Day
14h 13m
Waning Gibbous, 92% of the Moon is Illuminated
Jun 25
Waning Gibbous
Jun 29
Last Quarter
Jul 8
New
Jul 15
First Quarter
Jul 22
Full

Hourly Weather History & Observations

Time (CDT) Temp. Heat Index Dew Point Humidity Pressure Visibility Wind Dir Wind Speed Gust Speed Precip Events Conditions
12:53 AM 80.1 °F 81.1 °F 61.0 °F 52% 29.80 in 10.0 mi South 16.1 mph - N/A   Clear
1:53 AM 80.1 °F 81.2 °F 62.1 °F 54% 29.80 in 10.0 mi SSE 12.7 mph - N/A   Clear
2:53 AM 80.1 °F 80.7 °F 59.0 °F 48% 29.79 in 10.0 mi South 15.0 mph 23.0 mph N/A   Clear
3:53 AM 79.0 °F - 57.9 °F 48% 29.79 in 10.0 mi South 18.4 mph 23.0 mph N/A   Clear
4:53 AM 78.1 °F - 59.0 °F 52% 29.79 in 10.0 mi South 16.1 mph - N/A   Clear
5:53 AM 77.0 °F - 62.1 °F 60% 29.80 in 10.0 mi South 16.1 mph - N/A   Clear
6:53 AM 75.9 °F - 64.0 °F 67% 29.81 in 10.0 mi South 16.1 mph 26.5 mph N/A   Clear
7:53 AM 75.9 °F - 64.9 °F 69% 29.83 in 10.0 mi South 16.1 mph 23.0 mph N/A   Clear
8:53 AM 78.1 °F - 66.0 °F 66% 29.83 in 10.0 mi South 18.4 mph - N/A   Clear
9:53 AM 80.1 °F 82.1 °F 66.0 °F 62% 29.84 in 10.0 mi South 15.0 mph - N/A   Clear
10:53 AM 84.9 °F 87.1 °F 66.0 °F 53% 29.83 in 10.0 mi South 15.0 mph 20.7 mph N/A   Clear
11:53 AM 90.0 °F 92.4 °F 66.0 °F 45% 29.82 in 10.0 mi South 15.0 mph - N/A   Clear
12:53 PM 91.0 °F 92.6 °F 64.0 °F 41% 29.81 in 10.0 mi South 8.1 mph 18.4 mph N/A   Clear
1:53 PM 96.1 °F 96.4 °F 61.0 °F 31% 29.78 in 10.0 mi Variable 4.6 mph - N/A   Clear
2:53 PM 98.1 °F 97.2 °F 57.9 °F 26% 29.76 in 10.0 mi SSW 8.1 mph - N/A   Clear
3:53 PM 100.9 °F 99.6 °F 55.9 °F 22% 29.74 in 10.0 mi South 10.4 mph - N/A   Clear
4:53 PM 100.9 °F 99.1 °F 54.0 °F 21% 29.72 in 10.0 mi Variable 3.5 mph - N/A   Partly Cloudy
5:53 PM 102.0 °F 99.7 °F 53.1 °F 19% 29.70 in 10.0 mi SE 11.5 mph 19.6 mph N/A   Partly Cloudy
6:53 PM 102.0 °F 99.7 °F 53.1 °F 19% 29.68 in 10.0 mi South 12.7 mph - N/A   Clear
7:17 PM 93.2 °F 92.6 °F 59.0 °F 32% 29.87 in 5.0 mi SSW 24.2 mph 38.0 mph N/A Thunderstorm Haze
7:28 PM 89.6 °F 89.5 °F 60.8 °F 38% 29.87 in 1.8 mi South 27.6 mph 42.6 mph N/A Thunderstorm Unknown
7:37 PM 89.6 °F 87.7 °F 55.4 °F 31% 29.86 in 3.0 mi SSW 24.2 mph 34.5 mph N/A Thunderstorm Haze
7:53 PM 89.1 °F 89.0 °F 61.0 °F 39% 29.71 in 10.0 mi South 17.3 mph 24.2 mph N/A Thunderstorm Partly Cloudy
8:04 PM 89.6 °F 89.5 °F 60.8 °F 38% 29.87 in 10.0 mi South 17.3 mph 26.5 mph N/A   Clear
8:53 PM 91.0 °F 92.6 °F 64.0 °F 41% 29.70 in 10.0 mi South 17.3 mph 27.6 mph N/A   Clear
9:53 PM 89.1 °F 90.0 °F 63.0 °F 42% 29.77 in 10.0 mi SSE 21.9 mph 27.6 mph N/A   Clear
10:53 PM 87.1 °F 88.3 °F 64.0 °F 46% 29.78 in 10.0 mi SSE 20.7 mph 28.8 mph N/A   Clear
11:53 PM 84.9 °F 86.1 °F 64.0 °F 49% 29.77 in 10.0 mi SSE 18.4 mph 26.5 mph N/A   Clear